Orbital Elements at Epoch 2459000.5 (2020-May-31.0) TDB
Reference: JPL 23 (heliocentric ecliptic J2000)
Element | Value | Uncertainty (1-sigma) | Units |
e | .2203919885676797 | 5.0541e-08 | |
a | 2.331525221055533 | 1.0437e-08 | au |
q | 1.817675741191405 | 1.235e-07 | au |
i | 7.397956363440509 | 3.3402e-06 | deg |
node | 127.3170036851741 | 3.0391e-05 | deg |
peri | 243.2891862334914 | 3.1163e-05 | deg |
M | 261.0250014619717 | 8.1272e-06 | deg |
tp | 2459358.004577378509 (2021-May-23.50457738) | 3.0697e-05 | TDB |
period | 1300.345034173587 3.56 | 8.7317e-06 2.391e-08 | d yr |
n | .2768495980213375 | 1.859e-09 | deg/d |
Q | 2.845374700919661 | 1.2738e-08 | au |
|
| | Orbit Determination Parameters
Additional Information
|